Time,TemperatureF,DewpointF,PressureIn,WindDirection,WindDirectionDegrees,WindSpeedMPH,WindSpeedGustMPH,Humidity,HourlyPrecipIn,Conditions,Clouds,dailyrainin,SoftwareType,DateUTC
2014-09-21 00:00:00,68.5,41.9,29.82,South,173,6.0,6.0,38,0.00,,---,0.00,VWS V14.01,2014-09-21 07:00:00,
2014-09-21 00:05:00,68.6,41.3,29.82,South,184,7.0,8.0,37,0.00,,---,0.00,VWS V14.01,2014-09-21 07:05:00,
2014-09-21 00:10:00,68.6,41.3,29.82,SSE,165,2.0,8.0,37,0.00,,---,0.00,VWS V14.01,2014-09-21 07:10:00,
2014-09-21 00:15:00,68.6,41.3,29.82,South,179,7.0,8.0,37,0.00,,---,0.00,VWS V14.01,2014-09-21 07:15:00,
2014-09-21 00:20:00,68.6,41.3,29.82,South,175,13.0,13.0,37,0.00,,---,0.00,VWS V14.01,2014-09-21 07:20:00,
2014-09-21 00:25:00,68.4,41.1,29.82,SSW,199,5.0,10.0,37,0.00,,---,0.00,VWS V14.01,2014-09-21 07:25:00,
2014-09-21 00:30:00,68.3,41.7,29.82,SSW,193,4.0,9.0,38,0.00,,---,0.00,VWS V14.01,2014-09-21 07:30:00,
2014-09-21 00:35:00,68.1,41.6,29.81,SSW,204,2.0,7.0,38,0.00,,---,0.00,VWS V14.01,2014-09-21 07:35:00,
2014-09-21 00:40:00,67.9,41.4,29.81,SSW,211,2.0,7.0,38,0.00,,---,0.00,VWS V14.01,2014-09-21 07:40:00,
2014-09-21 00:45:00,67.8,41.3,29.81,SSW,204,4.0,8.0,38,0.00,,---,0.00,VWS V14.01,2014-09-21 07:45:00,
2014-09-21 00:50:00,67.7,41.2,29.81,SSW,200,10.0,10.0,38,0.00,,---,0.00,VWS V14.01,2014-09-21 07:50:00,
2014-09-21 00:55:00,67.7,41.2,29.81,South,188,4.0,4.0,38,0.00,,---,0.00,VWS V14.01,2014-09-21 07:55:00,
2014-09-21 01:00:00,67.6,40.4,29.81,SW,217,2.0,7.0,37,0.00,,---,0.00,VWS V14.01,2014-09-21 08:00:00,
2014-09-21 01:05:00,67.6,40.4,29.81,SSE,165,2.0,6.0,37,0.00,,---,0.00,VWS V14.01,2014-09-21 08:05:00,
2014-09-21 01:10:00,67.6,40.4,29.82,SSE,150,0.0,7.0,37,0.00,,---,0.00,VWS V14.01,2014-09-21 08:10:00,
2014-09-21 01:15:00,67.5,40.3,29.82,SSW,207,4.0,10.0,37,0.00,,---,0.00,VWS V14.01,2014-09-21 08:15:00,
2014-09-21 01:20:00,67.5,41.0,29.82,SSE,156,6.0,7.0,38,0.00,,---,0.00,VWS V14.01,2014-09-21 08:20:00,
2014-09-21 01:25:00,67.4,40.9,29.81,SSW,198,4.0,8.0,38,0.00,,---,0.00,VWS V14.01,2014-09-21 08:25:00,
2014-09-21 01:30:00,67.3,40.8,29.81,SSE,167,1.0,12.0,38,0.00,,---,0.00,VWS V14.01,2014-09-21 08:30:00,
2014-09-21 01:35:00,67.3,40.8,29.81,South,178,5.0,9.0,38,0.00,,---,0.00,VWS V14.01,2014-09-21 08:35:00,
2014-09-21 01:40:00,67.2,40.8,29.82,SSW,195,4.0,10.0,38,0.00,,---,0.00,VWS V14.01,2014-09-21 08:40:00,
2014-09-21 01:45:00,67.2,40.8,29.82,SE,140,7.0,8.0,38,0.00,,---,0.00,VWS V14.01,2014-09-21 08:45:00,
2014-09-21 01:47:00,67.2,40.8,29.82,SSE,161,2.0,8.0,38,0.00,,---,0.00,VWS V14.01,2014-09-21 08:47:00,
2014-09-21 01:52:00,67.1,40.7,29.82,South,184,3.0,7.0,38,0.00,,---,0.00,VWS V14.01,2014-09-21 08:52:00,
2014-09-21 01:57:00,67.0,40.6,29.82,South,179,7.0,7.0,38,0.00,,---,0.00,VWS V14.01,2014-09-21 08:57:00,
2014-09-21 02:02:00,66.8,40.4,29.82,South,169,2.0,6.0,38,0.00,,---,0.00,VWS V14.01,2014-09-21 09:02:00,
2014-09-21 02:07:00,66.8,41.1,29.82,South,171,1.0,4.0,39,0.00,,---,0.00,VWS V14.01,2014-09-21 09:07:00,
2014-09-21 02:12:00,66.7,41.0,29.82,South,169,1.0,2.0,39,0.00,,---,0.00,VWS V14.01,2014-09-21 09:12:00,
2014-09-21 02:17:00,66.6,40.9,29.82,SSE,167,2.0,4.0,39,0.00,,---,0.00,VWS V14.01,2014-09-21 09:17:00,
2014-09-21 02:22:00,66.5,40.8,29.81,SSE,167,0.0,1.0,39,0.00,,---,0.00,VWS V14.01,2014-09-21 09:22:00,
2014-09-21 02:27:00,66.4,40.7,29.81,SSE,166,1.0,4.0,39,0.00,,---,0.00,VWS V14.01,2014-09-21 09:27:00,
2014-09-21 02:32:00,66.1,41.1,29.81,East,92,5.0,7.0,40,0.00,,---,0.00,VWS V14.01,2014-09-21 09:32:00,
2014-09-21 02:37:00,65.7,40.7,29.81,East,84,1.0,4.0,40,0.00,,---,0.00,VWS V14.01,2014-09-21 09:37:00,
2014-09-21 02:42:00,65.4,41.1,29.81,East,85,3.0,6.0,41,0.00,,---,0.00,VWS V14.01,2014-09-21 09:42:00,
2014-09-21 02:47:00,65.2,41.5,29.81,East,88,3.0,5.0,42,0.00,,---,0.00,VWS V14.01,2014-09-21 09:47:00,
2014-09-21 02:52:00,65.0,41.4,29.80,East,85,4.0,5.0,42,0.00,,---,0.00,VWS V14.01,2014-09-21 09:52:00,
2014-09-21 02:57:00,64.8,41.8,29.80,East,84,3.0,4.0,43,0.00,,---,0.00,VWS V14.01,2014-09-21 09:57:00,
2014-09-21 03:02:00,64.6,41.6,29.80,East,86,3.0,5.0,43,0.00,,---,0.00,VWS V14.01,2014-09-21 10:02:00,
2014-09-21 03:07:00,64.3,41.9,29.81,ESE,113,4.0,6.0,44,0.00,,---,0.00,VWS V14.01,2014-09-21 10:07:00,
2014-09-21 03:12:00,64.3,41.9,29.81,SE,134,2.0,7.0,44,0.00,,---,0.00,VWS V14.01,2014-09-21 10:12:00,
2014-09-21 03:17:00,64.2,41.8,29.81,SE,142,1.0,7.0,44,0.00,,---,0.00,VWS V14.01,2014-09-21 10:17:00,
2014-09-21 03:22:00,64.3,41.3,29.81,SSE,163,6.0,7.0,43,0.00,,---,0.00,VWS V14.01,2014-09-21 10:22:00,
2014-09-21 03:27:00,64.2,41.3,29.81,South,171,5.0,8.0,43,0.00,,---,0.00,VWS V14.01,2014-09-21 10:27:00,
2014-09-21 03:32:00,64.2,40.7,29.81,South,175,6.0,7.0,42,0.00,,---,0.00,VWS V14.01,2014-09-21 10:32:00,
2014-09-21 03:37:00,64.1,40.6,29.81,SSE,150,4.0,6.0,42,0.00,,---,0.00,VWS V14.01,2014-09-21 10:37:00,
2014-09-21 03:40:00,64.1,41.2,29.81,South,184,0.0,7.0,43,0.00,,---,0.00,VWS V14.01,2014-09-21 10:40:00,
2014-09-21 03:45:00,64.0,41.1,29.80,SSE,157,0.0,4.0,43,0.00,,---,0.00,VWS V14.01,2014-09-21 10:45:00,
2014-09-21 03:46:00,63.9,41.0,29.81,SSW,193,3.0,5.0,43,0.00,,---,0.00,VWS V14.01,2014-09-21 10:46:00,
2014-09-21 03:51:00,63.9,41.0,29.80,SSE,156,2.0,5.0,43,0.00,,---,0.00,VWS V14.01,2014-09-21 10:51:00,
2014-09-21 03:56:00,63.7,40.8,29.81,ESE,115,1.0,4.0,43,0.00,,---,0.00,VWS V14.01,2014-09-21 10:56:00,
2014-09-21 04:01:00,63.6,41.3,29.80,East,88,1.0,4.0,44,0.00,,---,0.00,VWS V14.01,2014-09-21 11:01:00,
2014-09-21 04:06:00,63.5,41.2,29.80,East,88,0.0,0.0,44,0.00,,---,0.00,VWS V14.01,2014-09-21 11:06:00,
2014-09-21 04:11:00,63.5,40.6,29.80,East,88,0.0,0.0,43,0.00,,---,0.00,VWS V14.01,2014-09-21 11:11:00,
2014-09-21 04:16:00,63.4,41.1,29.80,East,88,0.0,0.0,44,0.00,,---,0.00,VWS V14.01,2014-09-21 11:16:00,
2014-09-21 04:21:00,63.4,41.1,29.80,East,88,0.0,0.0,44,0.00,,---,0.00,VWS V14.01,2014-09-21 11:21:00,
2014-09-21 04:26:00,63.2,41.0,29.80,East,88,0.0,0.0,44,0.00,,---,0.00,VWS V14.01,2014-09-21 11:26:00,
2014-09-21 04:31:00,63.2,41.0,29.81,East,88,0.0,0.0,44,0.00,,---,0.00,VWS V14.01,2014-09-21 11:31:00,
2014-09-21 04:36:00,63.0,40.8,29.80,East,88,0.0,0.0,44,0.00,,---,0.00,VWS V14.01,2014-09-21 11:36:00,
2014-09-21 04:41:00,62.9,40.7,29.81,East,88,0.0,0.0,44,0.00,,---,0.00,VWS V14.01,2014-09-21 11:41:00,
2014-09-21 04:46:00,62.8,40.6,29.81,East,88,0.0,0.0,44,0.00,,---,0.00,VWS V14.01,2014-09-21 11:46:00,
2014-09-21 04:51:00,62.7,41.1,29.81,East,88,0.0,0.0,45,0.00,,---,0.00,VWS V14.01,2014-09-21 11:51:00,
2014-09-21 04:56:00,62.7,41.1,29.80,East,88,0.0,0.0,45,0.00,,---,0.00,VWS V14.01,2014-09-21 11:56:00,
2014-09-21 05:01:00,62.5,40.9,29.80,East,88,0.0,0.0,45,0.00,,---,0.00,VWS V14.01,2014-09-21 12:01:00,
2014-09-21 05:06:00,62.4,40.8,29.80,East,88,0.0,0.0,45,0.00,,---,0.00,VWS V14.01,2014-09-21 12:06:00,
2014-09-21 05:11:00,62.3,40.7,29.80,East,88,0.0,0.0,45,0.00,,---,0.00,VWS V14.01,2014-09-21 12:11:00,
2014-09-21 05:16:00,62.3,41.3,29.80,East,88,0.0,0.0,46,0.00,,---,0.00,VWS V14.01,2014-09-21 12:16:00,
2014-09-21 05:21:00,62.2,41.2,29.80,East,88,0.0,0.0,46,0.00,,---,0.00,VWS V14.01,2014-09-21 12:21:00,
2014-09-21 05:26:00,62.1,41.1,29.80,East,88,0.0,0.0,46,0.00,,---,0.00,VWS V14.01,2014-09-21 12:26:00,
2014-09-21 05:31:00,62.0,41.0,29.80,East,88,0.0,2.0,46,0.00,,---,0.00,VWS V14.01,2014-09-21 12:31:00,
2014-09-21 05:36:00,61.8,40.8,29.80,East,88,0.0,1.0,46,0.00,,---,0.00,VWS V14.01,2014-09-21 12:36:00,
2014-09-21 05:41:00,61.8,41.4,29.81,East,88,0.0,0.0,47,0.00,,---,0.00,VWS V14.01,2014-09-21 12:41:00,
2014-09-21 05:46:00,61.7,42.4,29.81,East,88,0.0,1.0,49,0.00,,---,0.00,VWS V14.01,2014-09-21 12:46:00,
2014-09-21 05:48:00,61.7,42.4,29.81,East,88,1.0,1.0,49,0.00,,---,0.00,VWS V14.01,2014-09-21 12:48:00,
2014-09-21 05:53:00,61.7,42.4,29.81,ENE,58,3.0,4.0,49,0.00,,---,0.00,VWS V14.01,2014-09-21 12:53:00,
2014-09-21 05:58:00,61.5,43.7,29.81,NNE,31,3.0,4.0,52,0.00,,---,0.00,VWS V14.01,2014-09-21 12:58:00,
2014-09-21 06:03:00,61.5,43.7,29.81,NNE,31,0.0,2.0,52,0.00,,---,0.00,VWS V14.01,2014-09-21 13:03:00,
2014-09-21 06:08:00,61.4,44.1,29.81,NNE,31,2.0,3.0,53,0.00,,---,0.00,VWS V14.01,2014-09-21 13:08:00,
2014-09-21 06:13:00,61.4,44.6,29.81,NNE,31,1.0,3.0,54,0.00,,---,0.00,VWS V14.01,2014-09-21 13:13:00,
2014-09-21 06:18:00,61.4,45.6,29.81,NNE,31,3.0,5.0,56,0.00,,---,0.00,VWS V14.01,2014-09-21 13:18:00,
2014-09-21 06:23:00,61.3,46.0,29.81,NNE,31,2.0,4.0,57,0.00,,---,0.00,VWS V14.01,2014-09-21 13:23:00,
2014-09-21 06:28:00,61.3,46.4,29.81,NNE,24,4.0,5.0,58,0.00,,---,0.00,VWS V14.01,2014-09-21 13:28:00,
2014-09-21 06:33:00,61.3,46.9,29.82,NNE,17,3.0,6.0,59,0.00,,---,0.00,VWS V14.01,2014-09-21 13:33:00,
2014-09-21 06:38:00,61.2,46.8,29.82,NNE,24,4.0,4.0,59,0.00,,---,0.00,VWS V14.01,2014-09-21 13:38:00,
2014-09-21 06:43:00,61.1,47.1,29.81,North,5,6.0,8.0,60,0.00,,---,0.00,VWS V14.01,2014-09-21 13:43:00,
2014-09-21 06:48:00,61.0,47.5,29.82,NNE,24,6.0,7.0,61,0.00,,---,0.00,VWS V14.01,2014-09-21 13:48:00,
2014-09-21 06:53:00,60.9,47.8,29.82,NNE,27,3.0,8.0,62,0.00,,---,0.00,VWS V14.01,2014-09-21 13:53:00,
2014-09-21 06:58:00,60.7,48.0,29.82,NNE,28,6.0,7.0,63,0.00,,---,0.00,VWS V14.01,2014-09-21 13:58:00,
2014-09-21 07:03:00,60.5,47.9,29.82,North,360,3.0,6.0,63,0.00,,---,0.00,VWS V14.01,2014-09-21 14:03:00,
2014-09-21 07:08:00,60.4,48.2,29.82,North,360,5.0,8.0,64,0.00,,---,0.00,VWS V14.01,2014-09-21 14:08:00,
2014-09-21 07:13:00,60.4,47.8,29.83,North,9,3.0,5.0,63,0.00,,---,0.00,VWS V14.01,2014-09-21 14:13:00,
2014-09-21 07:18:00,60.4,47.8,29.83,NNE,30,0.0,6.0,63,0.00,,---,0.00,VWS V14.01,2014-09-21 14:18:00,
2014-09-21 07:23:00,60.3,48.1,29.82,North,11,6.0,6.0,64,0.00,,---,0.00,VWS V14.01,2014-09-21 14:23:00,
2014-09-21 07:28:00,60.3,48.1,29.82,North,11,3.0,5.0,64,0.00,,---,0.00,VWS V14.01,2014-09-21 14:28:00,
2014-09-21 07:33:00,60.2,48.4,29.82,NNW,344,3.0,5.0,65,0.00,,---,0.00,VWS V14.01,2014-09-21 14:33:00,
2014-09-21 07:38:00,60.1,48.7,29.83,North,355,4.0,7.0,66,0.00,,---,0.00,VWS V14.01,2014-09-21 14:38:00,
2014-09-21 07:43:00,60.0,48.6,29.83,North,5,3.0,5.0,66,0.00,,---,0.00,VWS V14.01,2014-09-21 14:43:00,
2014-09-21 07:48:00,60.0,48.6,29.83,North,5,1.0,3.0,66,0.00,,---,0.00,VWS V14.01,2014-09-21 14:48:00,
2014-09-21 07:53:00,60.0,48.6,29.83,North,360,0.0,4.0,66,0.00,,---,0.00,VWS V14.01,2014-09-21 14:53:00,
2014-09-21 07:58:00,60.0,48.6,29.83,North,360,4.0,7.0,66,0.00,,---,0.00,VWS V14.01,2014-09-21 14:58:00,
2014-09-21 08:03:00,60.0,48.6,29.83,North,10,2.0,4.0,66,0.00,,---,0.00,VWS V14.01,2014-09-21 15:03:00,
2014-09-21 08:08:00,60.1,49.1,29.83,NNE,17,2.0,4.0,67,0.00,,---,0.00,VWS V14.01,2014-09-21 15:08:00,
2014-09-21 08:13:00,60.2,48.8,29.83,NE,35,3.0,3.0,66,0.00,,---,0.00,VWS V14.01,2014-09-21 15:13:00,
2014-09-21 08:18:00,60.2,48.8,29.83,NNE,28,4.0,5.0,66,0.00,,---,0.00,VWS V14.01,2014-09-21 15:18:00,
2014-09-21 08:23:00,60.4,49.0,29.83,NNE,27,0.0,3.0,66,0.00,,---,0.00,VWS V14.01,2014-09-21 15:23:00,
2014-09-21 08:28:00,60.5,48.7,29.83,NNE,15,3.0,4.0,65,0.00,,---,0.00,VWS V14.01,2014-09-21 15:28:00,
2014-09-21 08:33:00,60.6,48.8,29.83,NNE,15,3.0,4.0,65,0.00,,---,0.00,VWS V14.01,2014-09-21 15:33:00,
2014-09-21 08:38:00,60.8,49.0,29.83,NNE,15,3.0,4.0,65,0.00,,---,0.00,VWS V14.01,2014-09-21 15:38:00,
2014-09-21 08:43:00,61.0,48.8,29.83,NNE,15,0.0,4.0,64,0.00,,---,0.00,VWS V14.01,2014-09-21 15:43:00,
2014-09-21 08:48:00,61.2,48.9,29.83,NNE,15,0.0,5.0,64,0.00,,---,0.00,VWS V14.01,2014-09-21 15:48:00,
2014-09-21 08:53:00,61.3,48.6,29.83,NNE,17,1.0,3.0,63,0.00,,---,0.00,VWS V14.01,2014-09-21 15:53:00,
2014-09-21 08:58:00,61.4,48.7,29.83,NNE,18,3.0,7.0,63,0.00,,---,0.00,VWS V14.01,2014-09-21 15:58:00,
2014-09-21 09:03:00,61.5,48.8,29.84,NNE,20,4.0,5.0,63,0.00,,---,0.00,VWS V14.01,2014-09-21 16:03:00,
2014-09-21 09:08:00,61.6,48.5,29.84,NNE,28,2.0,4.0,62,0.00,,---,0.00,VWS V14.01,2014-09-21 16:08:00,
2014-09-21 09:13:00,61.7,48.6,29.84,NNE,26,3.0,3.0,62,0.00,,---,0.00,VWS V14.01,2014-09-21 16:13:00,
2014-09-21 09:18:00,61.8,48.7,29.84,NNE,25,4.0,6.0,62,0.00,,---,0.00,VWS V14.01,2014-09-21 16:18:00,
2014-09-21 09:23:00,61.9,48.3,29.84,NNE,15,2.0,5.0,61,0.00,,---,0.00,VWS V14.01,2014-09-21 16:23:00,
2014-09-21 09:28:00,62.0,48.4,29.84,NNE,26,5.0,7.0,61,0.00,,---,0.00,VWS V14.01,2014-09-21 16:28:00,
2014-09-21 09:33:00,62.1,48.5,29.84,NNE,28,5.0,7.0,61,0.00,,---,0.00,VWS V14.01,2014-09-21 16:33:00,
2014-09-21 09:38:00,62.2,48.2,29.84,NNE,19,5.0,9.0,60,0.00,,---,0.00,VWS V14.01,2014-09-21 16:38:00,
2014-09-21 09:43:00,62.2,48.2,29.84,NNE,27,6.0,8.0,60,0.00,,---,0.00,VWS V14.01,2014-09-21 16:43:00,
2014-09-21 09:48:00,62.4,48.3,29.84,NNE,15,4.0,7.0,60,0.00,,---,0.00,VWS V14.01,2014-09-21 16:48:00,
2014-09-21 09:53:00,62.6,48.5,29.84,NNE,14,3.0,8.0,60,0.00,,---,0.00,VWS V14.01,2014-09-21 16:53:00,
2014-09-21 09:58:00,62.7,48.6,29.84,NNE,30,0.0,4.0,60,0.00,,---,0.00,VWS V14.01,2014-09-21 16:58:00,
2014-09-21 10:03:00,62.9,48.8,29.84,NNE,13,5.0,5.0,60,0.00,,---,0.00,VWS V14.01,2014-09-21 17:03:00,
2014-09-21 10:08:00,63.1,49.0,29.84,NNE,22,6.0,6.0,60,0.00,,---,0.00,VWS V14.01,2014-09-21 17:08:00,
2014-09-21 10:13:00,63.2,48.7,29.85,North,11,2.0,4.0,59,0.00,,---,0.00,VWS V14.01,2014-09-21 17:13:00,
2014-09-21 10:18:00,63.4,49.3,29.85,North,5,2.0,4.0,60,0.00,,---,0.00,VWS V14.01,2014-09-21 17:18:00,
2014-09-21 10:22:00,63.5,49.4,29.85,North,5,2.0,3.0,60,0.00,,---,0.00,VWS V14.01,2014-09-21 17:22:00,
2014-09-21 10:27:00,63.6,49.0,29.85,North,5,0.0,2.0,59,0.00,,---,0.00,VWS V14.01,2014-09-21 17:27:00,
2014-09-21 10:33:00,63.7,49.1,29.85,North,11,0.0,3.0,59,0.00,,---,0.00,VWS V14.01,2014-09-21 17:33:00,
2014-09-21 10:38:00,63.8,48.8,29.84,North,355,3.0,3.0,58,0.00,,---,0.00,VWS V14.01,2014-09-21 17:38:00,
2014-09-21 10:43:00,64.0,48.9,29.85,North,355,0.0,0.0,58,0.00,,---,0.00,VWS V14.01,2014-09-21 17:43:00,
2014-09-21 10:48:00,64.3,48.3,29.85,North,355,0.0,1.0,56,0.00,,---,0.00,VWS V14.01,2014-09-21 17:48:00,
2014-09-21 10:53:00,64.6,48.6,29.85,NNE,13,0.0,3.0,56,0.00,,---,0.00,VWS V14.01,2014-09-21 17:53:00,
2014-09-21 10:58:00,65.0,48.0,29.84,NNE,13,0.0,0.0,54,0.00,,---,0.00,VWS V14.01,2014-09-21 17:58:00,
2014-09-21 11:00:00,65.2,48.2,29.85,NNE,13,0.0,1.0,54,0.00,,---,0.00,VWS V14.01,2014-09-21 18:00:00,
2014-09-21 11:05:00,65.8,48.2,29.85,NNE,13,0.0,1.0,53,0.00,,---,0.00,VWS V14.01,2014-09-21 18:05:00,
2014-09-21 11:10:00,66.3,48.2,29.85,NNE,13,0.0,3.0,52,0.00,,---,0.00,VWS V14.01,2014-09-21 18:10:00,
2014-09-21 11:15:00,67.0,48.3,29.84,North,11,1.0,2.0,51,0.00,,---,0.00,VWS V14.01,2014-09-21 18:15:00,
2014-09-21 11:16:00,67.0,47.8,29.84,NNE,12,0.0,2.0,50,0.00,,---,0.00,VWS V14.01,2014-09-21 18:16:00,
2014-09-21 11:21:00,67.4,47.6,29.84,South,182,2.0,4.0,49,0.00,,---,0.00,VWS V14.01,2014-09-21 18:21:00,
2014-09-21 11:26:00,67.6,46.7,29.84,South,182,0.0,2.0,47,0.00,,---,0.00,VWS V14.01,2014-09-21 18:26:00,
2014-09-21 11:31:00,68.0,47.0,29.84,South,182,0.0,1.0,47,0.00,,---,0.00,VWS V14.01,2014-09-21 18:31:00,
2014-09-21 11:36:00,68.2,46.7,29.84,South,184,0.0,0.0,46,0.00,,---,0.00,VWS V14.01,2014-09-21 18:36:00,
2014-09-21 11:41:00,68.9,46.7,29.84,SSE,156,5.0,5.0,45,0.00,,---,0.00,VWS V14.01,2014-09-21 18:41:00,
2014-09-21 11:46:00,69.2,46.4,29.84,East,80,1.0,5.0,44,0.00,,---,0.00,VWS V14.01,2014-09-21 18:46:00,
2014-09-21 11:51:00,69.0,46.2,29.84,East,80,0.0,1.0,44,0.00,,---,0.00,VWS V14.01,2014-09-21 18:51:00,
2014-09-21 11:56:00,69.1,46.3,29.84,East,80,0.0,4.0,44,0.00,,---,0.00,VWS V14.01,2014-09-21 18:56:00,
2014-09-21 12:01:00,69.4,46.6,29.84,East,88,0.0,3.0,44,0.00,,---,0.00,VWS V14.01,2014-09-21 19:01:00,
2014-09-21 12:06:00,69.4,46.6,29.84,SE,139,2.0,4.0,44,0.00,,---,0.00,VWS V14.01,2014-09-21 19:06:00,
2014-09-21 12:11:00,69.6,46.8,29.84,SE,138,0.0,2.0,44,0.00,,---,0.00,VWS V14.01,2014-09-21 19:11:00,
2014-09-21 12:16:00,69.7,46.2,29.84,SE,138,0.0,5.0,43,0.00,,---,0.00,VWS V14.01,2014-09-21 19:16:00,
2014-09-21 12:21:00,69.3,46.5,29.84,SSW,196,0.0,5.0,44,0.00,,---,0.00,VWS V14.01,2014-09-21 19:21:00,
2014-09-21 12:26:00,69.8,46.9,29.84,South,184,0.0,2.0,44,0.00,,---,0.00,VWS V14.01,2014-09-21 19:26:00,
2014-09-21 12:31:00,70.1,46.0,29.84,SSE,165,1.0,7.0,42,0.00,,---,0.00,VWS V14.01,2014-09-21 19:31:00,
2014-09-21 12:36:00,69.9,46.4,29.84,SSE,165,2.0,5.0,43,0.00,,---,0.00,VWS V14.01,2014-09-21 19:36:00,
2014-09-21 12:37:00,69.9,46.4,29.84,SSE,167,7.0,7.0,43,0.00,,---,0.00,VWS V14.01,2014-09-21 19:37:00,
2014-09-21 12:42:00,70.2,46.1,29.84,SSW,209,3.0,6.0,42,0.00,,---,0.00,VWS V14.01,2014-09-21 19:42:00,
2014-09-21 12:47:00,70.3,46.2,29.83,SSW,207,5.0,6.0,42,0.00,,---,0.00,VWS V14.01,2014-09-21 19:47:00,
2014-09-21 12:52:00,70.4,45.6,29.83,SSW,192,5.0,8.0,41,0.00,,---,0.00,VWS V14.01,2014-09-21 19:52:00,
2014-09-21 12:57:00,70.6,45.8,29.83,SW,221,0.0,4.0,41,0.00,,---,0.00,VWS V14.01,2014-09-21 19:57:00,
2014-09-21 13:02:00,70.9,46.0,29.83,SSW,205,0.0,8.0,41,0.00,,---,0.00,VWS V14.01,2014-09-21 20:02:00,
2014-09-21 13:07:00,71.2,45.7,29.83,SSW,205,4.0,5.0,40,0.00,,---,0.00,VWS V14.01,2014-09-21 20:07:00,
2014-09-21 13:12:00,71.0,45.5,29.83,SSE,158,6.0,9.0,40,0.00,,---,0.00,VWS V14.01,2014-09-21 20:12:00,
2014-09-21 13:17:00,70.9,45.4,29.83,SSE,168,5.0,6.0,40,0.00,,---,0.00,VWS V14.01,2014-09-21 20:17:00,
2014-09-21 13:22:00,70.8,44.6,29.82,WNW,288,0.0,5.0,39,0.00,,---,0.00,VWS V14.01,2014-09-21 20:22:00,
2014-09-21 13:27:00,71.0,44.8,29.83,SSW,192,3.0,6.0,39,0.00,,---,0.00,VWS V14.01,2014-09-21 20:27:00,
2014-09-21 13:32:00,71.0,44.8,29.82,SSW,205,3.0,6.0,39,0.00,,---,0.00,VWS V14.01,2014-09-21 20:32:00,
2014-09-21 13:37:00,71.0,44.8,29.82,SSW,196,3.0,6.0,39,0.00,,---,0.00,VWS V14.01,2014-09-21 20:37:00,
2014-09-21 13:42:00,71.1,44.2,29.82,WSW,248,2.0,6.0,38,0.00,,---,0.00,VWS V14.01,2014-09-21 20:42:00,
2014-09-21 13:47:00,71.1,43.5,29.82,SSW,200,7.0,9.0,37,0.00,,---,0.00,VWS V14.01,2014-09-21 20:47:00,
2014-09-21 13:52:00,71.0,43.4,29.82,WSW,258,7.0,7.0,37,0.00,,---,0.00,VWS V14.01,2014-09-21 20:52:00,
2014-09-21 13:57:00,70.8,42.5,29.82,West,262,10.0,12.0,36,0.00,,---,0.00,VWS V14.01,2014-09-21 20:57:00,
2014-09-21 14:02:00,70.5,43.0,29.82,SW,219,3.0,6.0,37,0.00,,---,0.00,VWS V14.01,2014-09-21 21:02:00,
2014-09-21 14:07:00,70.6,42.4,29.82,South,175,5.0,9.0,36,0.00,,---,0.00,VWS V14.01,2014-09-21 21:07:00,
2014-09-21 14:12:00,70.7,42.5,29.82,SSW,196,4.0,9.0,36,0.00,,---,0.00,VWS V14.01,2014-09-21 21:12:00,
2014-09-21 14:17:00,70.7,41.7,29.82,SW,215,6.0,13.0,35,0.00,,---,0.00,VWS V14.01,2014-09-21 21:17:00,
2014-09-21 14:22:00,70.9,42.6,29.82,SSW,213,6.0,9.0,36,0.00,,---,0.00,VWS V14.01,2014-09-21 21:22:00,
2014-09-21 14:27:00,71.2,42.9,29.82,West,266,8.0,11.0,36,0.00,,---,0.00,VWS V14.01,2014-09-21 21:27:00,
2014-09-21 14:32:00,71.5,44.6,29.82,SSW,205,7.0,8.0,38,0.00,,---,0.00,VWS V14.01,2014-09-21 21:32:00,
2014-09-21 14:37:00,71.9,44.9,29.82,SSW,205,5.0,9.0,38,0.00,,---,0.00,VWS V14.01,2014-09-21 21:37:00,
2014-09-21 14:42:00,72.2,45.2,29.82,SW,215,3.0,5.0,38,0.00,,---,0.00,VWS V14.01,2014-09-21 21:42:00,
2014-09-21 14:47:00,72.7,44.2,29.82,South,182,5.0,11.0,36,0.00,,---,0.00,VWS V14.01,2014-09-21 21:47:00,
2014-09-21 14:52:00,72.8,44.3,29.82,SSW,204,6.0,10.0,36,0.00,,---,0.00,VWS V14.01,2014-09-21 21:52:00,
2014-09-21 14:57:00,72.8,44.3,29.82,WNW,284,4.0,9.0,36,0.00,,---,0.00,VWS V14.01,2014-09-21 21:57:00,
2014-09-21 15:02:00,72.7,44.2,29.82,SW,236,8.0,16.0,36,0.00,,---,0.00,VWS V14.01,2014-09-21 22:02:00,
2014-09-21 15:07:00,72.6,44.1,29.81,WSW,251,5.0,15.0,36,0.00,,---,0.00,VWS V14.01,2014-09-21 22:07:00,
2014-09-21 15:12:00,72.5,44.1,29.82,WSW,237,5.0,17.0,36,0.00,,---,0.00,VWS V14.01,2014-09-21 22:12:00,
2014-09-21 15:17:00,72.9,43.7,29.82,West,264,6.0,10.0,35,0.00,,---,0.00,VWS V14.01,2014-09-21 22:17:00,
2014-09-21 15:19:00,72.8,43.6,29.82,WSW,245,6.0,12.0,35,0.00,,---,0.00,VWS V14.01,2014-09-21 22:19:00,
2014-09-21 15:24:00,72.8,43.6,29.82,SW,232,9.0,15.0,35,0.00,,---,0.00,VWS V14.01,2014-09-21 22:24:00,
2014-09-21 15:29:00,72.9,43.7,29.82,West,263,10.0,13.0,35,0.00,,---,0.00,VWS V14.01,2014-09-21 22:29:00,
2014-09-21 15:34:00,72.8,43.6,29.82,West,265,12.0,12.0,35,0.00,,---,0.00,VWS V14.01,2014-09-21 22:34:00,
2014-09-21 15:39:00,72.6,44.1,29.82,West,275,11.0,12.0,36,0.00,,---,0.00,VWS V14.01,2014-09-21 22:39:00,
2014-09-21 15:44:00,72.3,43.9,29.82,West,279,7.0,17.0,36,0.00,,---,0.00,VWS V14.01,2014-09-21 22:44:00,
2014-09-21 15:49:00,72.1,44.4,29.82,WSW,248,8.0,11.0,37,0.00,,---,0.00,VWS V14.01,2014-09-21 22:49:00,
2014-09-21 15:54:00,71.8,44.8,29.82,West,265,16.0,16.0,38,0.00,,---,0.00,VWS V14.01,2014-09-21 22:54:00,
2014-09-21 15:59:00,72.1,44.4,29.82,SSW,212,5.0,13.0,37,0.00,,---,0.00,VWS V14.01,2014-09-21 22:59:00,
2014-09-21 16:04:00,71.9,44.9,29.82,West,260,12.0,12.0,38,0.00,,---,0.00,VWS V14.01,2014-09-21 23:04:00,
2014-09-21 16:09:00,71.6,44.7,29.82,WSW,250,11.0,13.0,38,0.00,,---,0.00,VWS V14.01,2014-09-21 23:09:00,
2014-09-21 16:14:00,71.2,45.0,29.82,SSW,213,6.0,15.0,39,0.00,,---,0.00,VWS V14.01,2014-09-21 23:14:00,
2014-09-21 16:19:00,70.6,45.1,29.82,SW,224,8.0,14.0,40,0.00,,---,0.00,VWS V14.01,2014-09-21 23:19:00,
2014-09-21 16:24:00,70.0,45.2,29.82,SW,220,10.0,12.0,41,0.00,,---,0.00,VWS V14.01,2014-09-21 23:24:00,
2014-09-21 16:29:00,69.8,45.1,29.82,SW,232,8.0,19.0,41,0.00,,---,0.00,VWS V14.01,2014-09-21 23:29:00,
2014-09-21 16:34:00,69.5,45.4,29.82,WSW,257,7.0,14.0,42,0.00,,---,0.00,VWS V14.01,2014-09-21 23:34:00,
2014-09-21 16:39:00,69.5,45.4,29.82,West,261,8.0,13.0,42,0.00,,---,0.00,VWS V14.01,2014-09-21 23:39:00,
2014-09-21 16:44:00,69.5,45.4,29.82,SSW,193,9.0,13.0,42,0.00,,---,0.00,VWS V14.01,2014-09-21 23:44:00,
2014-09-21 16:49:00,69.4,45.3,29.82,West,262,10.0,11.0,42,0.00,,---,0.00,VWS V14.01,2014-09-21 23:49:00,
2014-09-21 16:54:00,69.3,45.9,29.82,WSW,254,6.0,14.0,43,0.00,,---,0.00,VWS V14.01,2014-09-21 23:54:00,
2014-09-21 16:59:00,69.3,45.9,29.82,WSW,257,10.0,10.0,43,0.00,,---,0.00,VWS V14.01,2014-09-21 23:59:00,
2014-09-21 17:04:00,69.0,45.6,29.82,West,268,11.0,16.0,43,0.00,,---,0.00,VWS V14.01,2014-09-22 00:04:00,
2014-09-21 17:09:00,69.0,45.0,29.82,WSW,246,15.0,15.0,42,0.00,,---,0.00,VWS V14.01,2014-09-22 00:09:00,
2014-09-21 17:14:00,68.6,44.6,29.83,West,259,3.0,12.0,42,0.00,,---,0.00,VWS V14.01,2014-09-22 00:14:00,
2014-09-21 17:19:00,68.4,45.0,29.83,SSW,200,6.0,16.0,43,0.00,,---,0.00,VWS V14.01,2014-09-22 00:19:00,
2014-09-21 17:24:00,68.1,44.8,29.83,WNW,288,3.0,16.0,43,0.00,,---,0.00,VWS V14.01,2014-09-22 00:24:00,
2014-09-21 17:29:00,68.0,44.7,29.83,West,278,11.0,13.0,43,0.00,,---,0.00,VWS V14.01,2014-09-22 00:29:00,
2014-09-21 17:34:00,68.0,44.7,29.83,West,259,8.0,12.0,43,0.00,,---,0.00,VWS V14.01,2014-09-22 00:34:00,
2014-09-21 17:39:00,67.9,44.6,29.83,West,275,9.0,14.0,43,0.00,,---,0.00,VWS V14.01,2014-09-22 00:39:00,
2014-09-21 17:44:00,67.9,44.6,29.83,West,262,11.0,14.0,43,0.00,,---,0.00,VWS V14.01,2014-09-22 00:44:00,
2014-09-21 17:49:00,67.9,44.6,29.83,SSW,203,6.0,12.0,43,0.00,,---,0.00,VWS V14.01,2014-09-22 00:49:00,
2014-09-21 17:54:00,68.0,44.7,29.84,SSW,209,13.0,16.0,43,0.00,,---,0.00,VWS V14.01,2014-09-22 00:54:00,
2014-09-21 17:59:00,67.8,44.5,29.83,SW,219,5.0,13.0,43,0.00,,---,0.00,VWS V14.01,2014-09-22 00:59:00,
2014-09-21 18:04:00,67.9,44.6,29.84,SW,229,8.0,10.0,43,0.00,,---,0.00,VWS V14.01,2014-09-22 01:04:00,
2014-09-21 18:09:00,67.8,44.5,29.84,West,267,7.0,13.0,43,0.00,,---,0.00,VWS V14.01,2014-09-22 01:09:00,
2014-09-21 18:14:00,67.7,44.4,29.84,West,266,11.0,12.0,43,0.00,,---,0.00,VWS V14.01,2014-09-22 01:14:00,
2014-09-21 18:19:00,67.6,44.3,29.84,WSW,257,6.0,9.0,43,0.00,,---,0.00,VWS V14.01,2014-09-22 01:19:00,
2014-09-21 18:20:00,67.6,44.3,29.84,West,274,5.0,8.0,43,0.00,,---,0.00,VWS V14.01,2014-09-22 01:20:00,
2014-09-21 18:25:00,67.4,44.8,29.84,West,270,10.0,11.0,44,0.00,,---,0.00,VWS V14.01,2014-09-22 01:25:00,
2014-09-21 18:30:00,67.3,44.7,29.84,WSW,254,5.0,8.0,44,0.00,,---,0.00,VWS V14.01,2014-09-22 01:30:00,
2014-09-21 18:35:00,67.1,43.9,29.84,South,190,5.0,10.0,43,0.00,,---,0.00,VWS V14.01,2014-09-22 01:35:00,
2014-09-21 18:40:00,67.0,43.8,29.84,West,277,4.0,9.0,43,0.00,,---,0.00,VWS V14.01,2014-09-22 01:40:00,
2014-09-21 18:45:00,66.8,43.6,29.84,West,267,7.0,10.0,43,0.00,,---,0.00,VWS V14.01,2014-09-22 01:45:00,
2014-09-21 18:50:00,66.6,43.4,29.84,West,266,8.0,13.0,43,0.00,,---,0.00,VWS V14.01,2014-09-22 01:50:00,
2014-09-21 18:55:00,66.5,43.3,29.84,West,273,6.0,12.0,43,0.00,,---,0.00,VWS V14.01,2014-09-22 01:55:00,
2014-09-21 19:00:00,66.3,43.2,29.84,West,270,12.0,12.0,43,0.00,,---,0.00,VWS V14.01,2014-09-22 02:00:00,
2014-09-21 19:05:00,66.3,43.2,29.85,West,267,10.0,10.0,43,0.00,,---,0.00,VWS V14.01,2014-09-22 02:05:00,
2014-09-21 19:10:00,66.1,43.0,29.85,West,273,6.0,11.0,43,0.00,,---,0.00,VWS V14.01,2014-09-22 02:10:00,
2014-09-21 19:15:00,66.0,42.9,29.85,SSW,197,6.0,12.0,43,0.00,,---,0.00,VWS V14.01,2014-09-22 02:15:00,
2014-09-21 19:20:00,66.0,43.5,29.86,SW,221,8.0,10.0,44,0.00,,---,0.00,VWS V14.01,2014-09-22 02:20:00,
2014-09-21 19:25:00,65.9,42.8,29.86,West,260,6.0,10.0,43,0.00,,---,0.00,VWS V14.01,2014-09-22 02:25:00,
2014-09-21 19:30:00,65.7,43.2,29.86,West,265,6.0,13.0,44,0.00,,---,0.00,VWS V14.01,2014-09-22 02:30:00,
2014-09-21 19:35:00,65.7,43.2,29.86,West,277,8.0,9.0,44,0.00,,---,0.00,VWS V14.01,2014-09-22 02:35:00,
2014-09-21 19:40:00,65.5,43.0,29.86,WNW,283,5.0,8.0,44,0.00,,---,0.00,VWS V14.01,2014-09-22 02:40:00,
2014-09-21 19:45:00,65.2,42.8,29.87,NW,311,0.0,5.0,44,0.00,,---,0.00,VWS V14.01,2014-09-22 02:45:00,
2014-09-21 19:50:00,64.9,43.1,29.87,North,9,1.0,2.0,45,0.00,,---,0.00,VWS V14.01,2014-09-22 02:50:00,
2014-09-21 19:55:00,64.8,43.0,29.87,NE,47,0.0,4.0,45,0.00,,---,0.00,VWS V14.01,2014-09-22 02:55:00,
2014-09-21 20:00:00,64.5,43.3,29.87,NNW,333,0.0,4.0,46,0.00,,---,0.00,VWS V14.01,2014-09-22 03:00:00,
2014-09-21 20:05:00,64.4,43.2,29.88,North,360,1.0,3.0,46,0.00,,---,0.00,VWS V14.01,2014-09-22 03:05:00,
2014-09-21 20:10:00,64.2,43.0,29.88,WNW,296,0.0,6.0,46,0.00,,---,0.00,VWS V14.01,2014-09-22 03:10:00,
2014-09-21 20:15:00,64.1,42.9,29.88,WNW,296,0.0,1.0,46,0.00,,---,0.00,VWS V14.01,2014-09-22 03:15:00,
2014-09-21 20:20:00,63.9,42.7,29.88,WNW,303,0.0,1.0,46,0.00,,---,0.00,VWS V14.01,2014-09-22 03:20:00,
2014-09-21 20:25:00,63.8,42.6,29.88,WNW,283,8.0,8.0,46,0.00,,---,0.00,VWS V14.01,2014-09-22 03:25:00,
2014-09-21 20:30:00,63.7,43.1,29.88,West,273,5.0,7.0,47,0.00,,---,0.00,VWS V14.01,2014-09-22 03:30:00,
2014-09-21 20:35:00,63.6,43.0,29.88,West,266,8.0,9.0,47,0.00,,---,0.00,VWS V14.01,2014-09-22 03:35:00,
2014-09-21 20:40:00,63.5,42.9,29.88,WNW,284,5.0,10.0,47,0.00,,---,0.00,VWS V14.01,2014-09-22 03:40:00,
2014-09-21 20:45:00,63.9,43.3,29.88,SW,232,1.0,11.0,47,0.00,,---,0.00,VWS V14.01,2014-09-22 03:45:00,
2014-09-21 20:50:00,64.0,42.8,29.89,WNW,284,3.0,11.0,46,0.00,,---,0.00,VWS V14.01,2014-09-22 03:50:00,
2014-09-21 20:55:00,63.8,43.2,29.89,North,360,0.0,3.0,47,0.00,,---,0.00,VWS V14.01,2014-09-22 03:55:00,
2014-09-21 21:00:00,63.6,43.0,29.89,NNW,348,1.0,3.0,47,0.00,,---,0.00,VWS V14.01,2014-09-22 04:00:00,
2014-09-21 21:05:00,63.5,42.9,29.89,NNW,348,0.0,0.0,47,0.00,,---,0.00,VWS V14.01,2014-09-22 04:05:00,
2014-09-21 21:10:00,63.3,43.3,29.89,North,350,0.0,0.0,48,0.00,,---,0.00,VWS V14.01,2014-09-22 04:10:00,
2014-09-21 21:15:00,63.1,43.1,29.89,WSW,244,7.0,9.0,48,0.00,,---,0.00,VWS V14.01,2014-09-22 04:15:00,
2014-09-21 21:20:00,63.3,43.3,29.89,West,271,9.0,9.0,48,0.00,,---,0.00,VWS V14.01,2014-09-22 04:20:00,
2014-09-21 21:25:00,63.8,43.2,29.89,West,277,5.0,6.0,47,0.00,,---,0.00,VWS V14.01,2014-09-22 04:25:00,
2014-09-21 21:30:00,63.7,43.1,29.89,West,263,0.0,2.0,47,0.00,,---,0.00,VWS V14.01,2014-09-22 04:30:00,
2014-09-21 21:32:00,63.6,43.0,29.89,West,276,3.0,4.0,47,0.00,,---,0.00,VWS V14.01,2014-09-22 04:32:00,
2014-09-21 21:37:00,63.4,43.4,29.90,NNW,335,0.0,2.0,48,0.00,,---,0.00,VWS V14.01,2014-09-22 04:37:00,
2014-09-21 21:41:00,63.2,43.7,29.89,NNW,333,0.0,0.0,49,0.00,,---,0.00,VWS V14.01,2014-09-22 04:41:00,
2014-09-21 21:46:00,63.0,43.6,29.89,WSW,257,6.0,9.0,49,0.00,,---,0.00,VWS V14.01,2014-09-22 04:46:00,
2014-09-21 21:51:00,63.1,43.7,29.89,WNW,286,2.0,5.0,49,0.00,,---,0.00,VWS V14.01,2014-09-22 04:51:00,
2014-09-21 21:56:00,63.0,43.0,29.89,West,271,4.0,7.0,48,0.00,,---,0.00,VWS V14.01,2014-09-22 04:56:00,
2014-09-21 22:01:00,62.9,43.5,29.89,West,275,0.0,4.0,49,0.00,,---,0.00,VWS V14.01,2014-09-22 05:01:00,
2014-09-21 22:06:00,62.8,43.4,29.89,WNW,284,2.0,3.0,49,0.00,,---,0.00,VWS V14.01,2014-09-22 05:06:00,
2014-09-21 22:11:00,62.4,43.5,29.89,NNW,333,0.0,1.0,50,0.00,,---,0.00,VWS V14.01,2014-09-22 05:11:00,
2014-09-21 22:16:00,62.1,43.8,29.90,NNW,333,0.0,2.0,51,0.00,,---,0.00,VWS V14.01,2014-09-22 05:16:00,
2014-09-21 22:21:00,61.8,43.5,29.90,NNW,343,3.0,3.0,51,0.00,,---,0.00,VWS V14.01,2014-09-22 05:21:00,
2014-09-21 22:26:00,61.5,43.7,29.90,NNW,344,0.0,1.0,52,0.00,,---,0.00,VWS V14.01,2014-09-22 05:26:00,
2014-09-21 22:31:00,61.3,43.5,29.90,NE,45,3.0,4.0,52,0.00,,---,0.00,VWS V14.01,2014-09-22 05:31:00,